owner,sensor,date,latitude,longitude,vertical_datum,mass_concentration_of_oxygen_in_sea_water,qcFlag 
DISL,ioos:station:DISL:DISL:1,2013-10-01T00:00:00Z,30.2513,-88.0778,1.894,7.56,1111122 
DISL,ioos:station:DISL:DISL:1,2013-10-01T00:30:00Z,30.2513,-88.0778,1.889,6.25,1111122 
DISL,ioos:station:DISL:DISL:1,2013-10-01T01:00:00Z,30.2513,-88.0778,1.907,6.58,1111122 
DISL,ioos:station:DISL:DISL:1,2013-10-01T01:30:00Z,30.2513,-88.0778,1.93,6.63,1111122 
DISL,ioos:station:DISL:DISL:1,2013-10-01T02:00:00Z,30.2513,-88.0778,1.942,6.45,1111122 
DISL,ioos:station:DISL:DISL:1,2013-10-01T02:30:00Z,30.2513,-88.0778,1.956,6.27,1111122 
DISL,ioos:station:DISL:DISL:1,2013-10-01T03:00:00Z,30.2513,-88.0778,1.959,6.29,1111122 
DISL,ioos:station:DISL:DISL:1,2013-10-01T03:30:00Z,30.2513,-88.0778,1.984,6.36,1111122 
DISL,ioos:station:DISL:DISL:1,2013-10-01T04:00:00Z,30.2513,-88.0778,1.999,6.04,1111122 
DISL,ioos:station:DISL:DISL:1,2013-10-01T04:30:00Z,30.2513,-88.0778,2.025,6.13,1111122 
DISL,ioos:station:DISL:DISL:1,2013-10-01T05:00:00Z,30.2513,-88.0778,2.026,6.26,1111122 
DISL,ioos:station:DISL:DISL:1,2013-10-01T05:30:00Z,30.2513,-88.0778,2.042,6.64,1111122 
DISL,ioos:station:DISL:DISL:1,2013-10-01T06:00:00Z,30.2513,-88.0778,2.066,7.11,1111122 
DISL,ioos:station:DISL:DISL:1,2013-10-01T06:30:00Z,30.2513,-88.0778,2.07,6.56,1111122 
DISL,ioos:station:DISL:DISL:1,2013-10-01T07:00:00Z,30.2513,-88.0778,2.115,6.35,1111122 
DISL,ioos:station:DISL:DISL:1,2013-10-01T07:30:00Z,30.2513,-88.0778,2.098,5.95,1111122 
DISL,ioos:station:DISL:DISL:1,2013-10-01T08:00:00Z,30.2513,-88.0778,2.087,5.94,1111122 
DISL,ioos:station:DISL:DISL:1,2013-10-01T08:30:00Z,30.2513,-88.0778,2.117,6.65,1111122 
DISL,ioos:station:DISL:DISL:1,2013-10-01T09:00:00Z,30.2513,-88.0778,2.111,6.59,1111122 
DISL,ioos:station:DISL:DISL:1,2013-10-01T09:30:00Z,30.2513,-88.0778,2.154,6.9,1111122 
DISL,ioos:station:DISL:DISL:1,2013-10-01T10:00:00Z,30.2513,-88.0778,2.167,6.83,1111122 
DISL,ioos:station:DISL:DISL:1,2013-10-01T10:30:00Z,30.2513,-88.0778,2.169,6.67,1111122 
DISL,ioos:station:DISL:DISL:1,2013-10-01T11:00:00Z,30.2513,-88.0778,2.189,6.82,1111122 
DISL,ioos:station:DISL:DISL:1,2013-10-01T11:30:00Z,30.2513,-88.0778,2.186,6.24,1111122 
DISL,ioos:station:DISL:DISL:1,2013-10-01T12:00:00Z,30.2513,-88.0778,2.193,6.48,1111122 
DISL,ioos:station:DISL:DISL:1,2013-10-01T12:30:00Z,30.2513,-88.0778,2.206,6.17,1111122 
DISL,ioos:station:DISL:DISL:1,2013-10-01T13:00:00Z,30.2513,-88.0778,2.196,6.31,1111122 
DISL,ioos:station:DISL:DISL:1,2013-10-01T13:30:00Z,30.2513,-88.0778,2.198,6.2,1111122 
DISL,ioos:station:DISL:DISL:1,2013-10-01T14:00:00Z,30.2513,-88.0778,2.196,6.44,1111122 
DISL,ioos:station:DISL:DISL:1,2013-10-01T14:30:00Z,30.2513,-88.0778,2.195,6.97,1111122 
DISL,ioos:station:DISL:DISL:1,2013-10-01T15:00:00Z,30.2513,-88.0778,2.19,7.08,1111122 
DISL,ioos:station:DISL:DISL:1,2013-10-01T15:30:00Z,30.2513,-88.0778,2.17,7.12,1111122 
DISL,ioos:station:DISL:DISL:1,2013-10-01T16:00:00Z,30.2513,-88.0778,2.158,7.2,1111122 
DISL,ioos:station:DISL:DISL:1,2013-10-01T16:30:00Z,30.2513,-88.0778,2.142,7.36,1111122 
DISL,ioos:station:DISL:DISL:1,2013-10-01T17:00:00Z,30.2513,-88.0778,2.123,7.53,1111122 
DISL,ioos:station:DISL:DISL:1,2013-10-01T17:30:00Z,30.2513,-88.0778,2.1,7.7,1111122 
DISL,ioos:station:DISL:DISL:1,2013-10-01T18:00:00Z,30.2513,-88.0778,2.079,7.88,1111122 
DISL,ioos:station:DISL:DISL:1,2013-10-01T18:30:00Z,30.2513,-88.0778,2.059,8.22,1111122 
DISL,ioos:station:DISL:DISL:1,2013-10-01T19:00:00Z,30.2513,-88.0778,2.038,8.47,1111122 
DISL,ioos:station:DISL:DISL:1,2013-10-01T19:30:00Z,30.2513,-88.0778,2.023,9.12,1111122 
DISL,ioos:station:DISL:DISL:1,2013-10-01T20:00:00Z,30.2513,-88.0778,2.008,8.61,1111122 
DISL,ioos:station:DISL:DISL:1,2013-10-01T20:30:00Z,30.2513,-88.0778,1.982,8.26,1111122 
DISL,ioos:station:DISL:DISL:1,2013-10-01T21:00:00Z,30.2513,-88.0778,1.971,7.99,1111122 
DISL,ioos:station:DISL:DISL:1,2013-10-01T21:30:00Z,30.2513,-88.0778,1.974,7.8,1111122 
DISL,ioos:station:DISL:DISL:1,2013-10-01T22:00:00Z,30.2513,-88.0778,1.981,7.06,1111122 
DISL,ioos:station:DISL:DISL:1,2013-10-01T22:30:00Z,30.2513,-88.0778,1.976,7.21,1111122 
DISL,ioos:station:DISL:DISL:1,2013-10-01T23:00:00Z,30.2513,-88.0778,2.001,7.19,1111122 
DISL,ioos:station:DISL:DISL:1,2013-10-01T23:30:00Z,30.2513,-88.0778,1.986,7.05,1111122 
DISL,ioos:station:DISL:DISL:1,2013-10-02T00:00:00Z,30.2513,-88.0778,1.987,6.6,1111122 
DISL,ioos:station:DISL:DISL:1,2013-10-02T00:30:00Z,30.2513,-88.0778,1.987,6.81,1111122 
DISL,ioos:station:DISL:DISL:1,2013-10-02T01:00:00Z,30.2513,-88.0778,1.998,6.68,1111122 
DISL,ioos:station:DISL:DISL:1,2013-10-02T01:30:00Z,30.2513,-88.0778,2.016,6.84,1111122 
DISL,ioos:station:DISL:DISL:1,2013-10-02T02:00:00Z,30.2513,-88.0778,2.017,6.8,1111122 
DISL,ioos:station:DISL:DISL:1,2013-10-02T02:30:00Z,30.2513,-88.0778,2.016,6.76,1111122 
DISL,ioos:station:DISL:DISL:1,2013-10-02T03:00:00Z,30.2513,-88.0778,2.024,6.7,1111122 
DISL,ioos:station:DISL:DISL:1,2013-10-02T03:30:00Z,30.2513,-88.0778,2.039,6.57,1111122 
DISL,ioos:station:DISL:DISL:1,2013-10-02T04:00:00Z,30.2513,-88.0778,2.053,6.63,1111122 
DISL,ioos:station:DISL:DISL:1,2013-10-02T04:30:00Z,30.2513,-88.0778,2.038,6.41,1111122 
DISL,ioos:station:DISL:DISL:1,2013-10-02T05:00:00Z,30.2513,-88.0778,2.047,6.24,1111122 
DISL,ioos:station:DISL:DISL:1,2013-10-02T05:30:00Z,30.2513,-88.0778,2.065,6.16,1111122 
DISL,ioos:station:DISL:DISL:1,2013-10-02T06:00:00Z,30.2513,-88.0778,2.068,6.1,1111122 
DISL,ioos:station:DISL:DISL:1,2013-10-02T06:30:00Z,30.2513,-88.0778,2.069,6.04,1111122 
DISL,ioos:station:DISL:DISL:1,2013-10-02T07:00:00Z,30.2513,-88.0778,2.055,6.02,1111122 
DISL,ioos:station:DISL:DISL:1,2013-10-02T07:30:00Z,30.2513,-88.0778,2.063,6.1,1111122 
DISL,ioos:station:DISL:DISL:1,2013-10-02T08:00:00Z,30.2513,-88.0778,2.061,6.14,1111122 
DISL,ioos:station:DISL:DISL:1,2013-10-02T08:30:00Z,30.2513,-88.0778,2.062,6.21,1111122 
DISL,ioos:station:DISL:DISL:1,2013-10-02T09:00:00Z,30.2513,-88.0778,2.066,6.17,1111122 
DISL,ioos:station:DISL:DISL:1,2013-10-02T09:30:00Z,30.2513,-88.0778,2.06,6.12,1111122 
DISL,ioos:station:DISL:DISL:1,2013-10-02T10:00:00Z,30.2513,-88.0778,2.058,6.19,1111122 
DISL,ioos:station:DISL:DISL:1,2013-10-02T10:30:00Z,30.2513,-88.0778,2.053,6.12,1111122 
DISL,ioos:station:DISL:DISL:1,2013-10-02T11:00:00Z,30.2513,-88.0778,2.067,6.35,1111122 
DISL,ioos:station:DISL:DISL:1,2013-10-02T11:30:00Z,30.2513,-88.0778,2.08,6.48,1111122 
DISL,ioos:station:DISL:DISL:1,2013-10-02T12:00:00Z,30.2513,-88.0778,2.082,6.29,1111122 
DISL,ioos:station:DISL:DISL:1,2013-10-02T12:30:00Z,30.2513,-88.0778,2.095,5.89,1111122 
DISL,ioos:station:DISL:DISL:1,2013-10-02T13:00:00Z,30.2513,-88.0778,2.113,5.74,1111122 
DISL,ioos:station:DISL:DISL:1,2013-10-02T13:30:00Z,30.2513,-88.0778,2.131,5.71,1111122 
DISL,ioos:station:DISL:DISL:1,2013-10-02T14:00:00Z,30.2513,-88.0778,2.136,5.57,1111122 
DISL,ioos:station:DISL:DISL:1,2013-10-02T14:30:00Z,30.2513,-88.0778,2.124,5.84,1111122 
DISL,ioos:station:DISL:DISL:1,2013-10-02T15:00:00Z,30.2513,-88.0778,2.135,5.9,1111122 
DISL,ioos:station:DISL:DISL:1,2013-10-02T15:30:00Z,30.2513,-88.0778,2.156,5.77,1111122 
DISL,ioos:station:DISL:DISL:1,2013-10-02T16:00:00Z,30.2513,-88.0778,2.192,5.8,1111122 
DISL,ioos:station:DISL:DISL:1,2013-10-02T16:30:00Z,30.2513,-88.0778,2.165,5.74,1111122 
DISL,ioos:station:DISL:DISL:1,2013-10-02T17:00:00Z,30.2513,-88.0778,2.155,6.02,1111122 
DISL,ioos:station:DISL:DISL:1,2013-10-02T17:30:00Z,30.2513,-88.0778,2.148,6.07,1111122 
DISL,ioos:station:DISL:DISL:1,2013-10-02T18:00:00Z,30.2513,-88.0778,2.12,6.27,1111122 
DISL,ioos:station:DISL:DISL:1,2013-10-02T18:30:00Z,30.2513,-88.0778,2.116,6.43,1111122 
DISL,ioos:station:DISL:DISL:1,2013-10-02T19:00:00Z,30.2513,-88.0778,2.093,6.94,1111122 
DISL,ioos:station:DISL:DISL:1,2013-10-02T19:30:00Z,30.2513,-88.0778,2.094,7.43,1111122 
DISL,ioos:station:DISL:DISL:1,2013-10-02T20:00:00Z,30.2513,-88.0778,2.064,7.42,1111122 
DISL,ioos:station:DISL:DISL:1,2013-10-02T20:30:00Z,30.2513,-88.0778,2.073,7.37,1111122 
DISL,ioos:station:DISL:DISL:1,2013-10-02T21:00:00Z,30.2513,-88.0778,2.072,7.34,1111122 
DISL,ioos:station:DISL:DISL:1,2013-10-02T21:30:00Z,30.2513,-88.0778,2.072,7.37,1111122 
DISL,ioos:station:DISL:DISL:1,2013-10-02T22:00:00Z,30.2513,-88.0778,2.066,7.31,1111122 
DISL,ioos:station:DISL:DISL:1,2013-10-02T22:30:00Z,30.2513,-88.0778,2.065,7.04,1111122 
DISL,ioos:station:DISL:DISL:1,2013-10-02T23:00:00Z,30.2513,-88.0778,2.068,7.01,1111122 
DISL,ioos:station:DISL:DISL:1,2013-10-02T23:30:00Z,30.2513,-88.0778,2.031,7.0,1111122 
DISL,ioos:station:DISL:DISL:1,2013-10-03T00:00:00Z,30.2513,-88.0778,2.065,6.62,1111122 
DISL,ioos:station:DISL:DISL:1,2013-10-03T00:30:00Z,30.2513,-88.0778,2.078,6.27,1111122 
DISL,ioos:station:DISL:DISL:1,2013-10-03T01:00:00Z,30.2513,-88.0778,2.093,6.27,1111122 
DISL,ioos:station:DISL:DISL:1,2013-10-03T01:30:00Z,30.2513,-88.0778,2.124,6.22,1111122 
DISL,ioos:station:DISL:DISL:1,2013-10-03T02:00:00Z,30.2513,-88.0778,2.138,6.27,1111122 
DISL,ioos:station:DISL:DISL:1,2013-10-03T02:30:00Z,30.2513,-88.0778,2.148,6.07,1111122 
DISL,ioos:station:DISL:DISL:1,2013-10-03T03:00:00Z,30.2513,-88.0778,2.169,6.0,1111122 
DISL,ioos:station:DISL:DISL:1,2013-10-03T03:30:00Z,30.2513,-88.0778,2.179,5.94,1111122 
DISL,ioos:station:DISL:DISL:1,2013-10-03T04:00:00Z,30.2513,-88.0778,2.176,6.01,1111122 
DISL,ioos:station:DISL:DISL:1,2013-10-03T04:30:00Z,30.2513,-88.0778,2.174,5.88,1111122 
DISL,ioos:station:DISL:DISL:1,2013-10-03T05:00:00Z,30.2513,-88.0778,2.169,5.91,1111122 
DISL,ioos:station:DISL:DISL:1,2013-10-03T05:30:00Z,30.2513,-88.0778,2.185,5.91,1111122 
DISL,ioos:station:DISL:DISL:1,2013-10-03T06:00:00Z,30.2513,-88.0778,2.194,5.82,1111122 
DISL,ioos:station:DISL:DISL:1,2013-10-03T06:30:00Z,30.2513,-88.0778,2.155,5.99,1111122 
DISL,ioos:station:DISL:DISL:1,2013-10-03T07:00:00Z,30.2513,-88.0778,2.172,5.91,1111122 
DISL,ioos:station:DISL:DISL:1,2013-10-03T07:30:00Z,30.2513,-88.0778,2.163,6.04,1111122 
DISL,ioos:station:DISL:DISL:1,2013-10-03T08:00:00Z,30.2513,-88.0778,2.136,6.08,1111122 
DISL,ioos:station:DISL:DISL:1,2013-10-03T08:30:00Z,30.2513,-88.0778,2.138,6.08,1111122 
DISL,ioos:station:DISL:DISL:1,2013-10-03T09:00:00Z,30.2513,-88.0778,2.126,6.19,1111122 
DISL,ioos:station:DISL:DISL:1,2013-10-03T09:30:00Z,30.2513,-88.0778,2.117,6.24,1111122 
DISL,ioos:station:DISL:DISL:1,2013-10-03T10:00:00Z,30.2513,-88.0778,2.139,6.21,1111122 
DISL,ioos:station:DISL:DISL:1,2013-10-03T10:30:00Z,30.2513,-88.0778,2.115,6.15,1111122 
DISL,ioos:station:DISL:DISL:1,2013-10-03T11:00:00Z,30.2513,-88.0778,2.096,6.14,1111122 
DISL,ioos:station:DISL:DISL:1,2013-10-03T11:30:00Z,30.2513,-88.0778,2.15,6.09,1111122 
DISL,ioos:station:DISL:DISL:1,2013-10-03T12:00:00Z,30.2513,-88.0778,2.166,6.06,1111122 
DISL,ioos:station:DISL:DISL:1,2013-10-03T12:30:00Z,30.2513,-88.0778,2.156,6.01,1111122 
DISL,ioos:station:DISL:DISL:1,2013-10-03T13:00:00Z,30.2513,-88.0778,2.172,6.0,1111122 
DISL,ioos:station:DISL:DISL:1,2013-10-03T13:30:00Z,30.2513,-88.0778,2.186,5.96,1111122 
DISL,ioos:station:DISL:DISL:1,2013-10-03T14:00:00Z,30.2513,-88.0778,2.187,5.74,1111122 
DISL,ioos:station:DISL:DISL:1,2013-10-03T14:30:00Z,30.2513,-88.0778,2.177,5.63,1111122 
DISL,ioos:station:DISL:DISL:1,2013-10-03T15:00:00Z,30.2513,-88.0778,2.162,5.57,1111122 
DISL,ioos:station:DISL:DISL:1,2013-10-03T15:30:00Z,30.2513,-88.0778,2.176,5.59,1111122 
DISL,ioos:station:DISL:DISL:1,2013-10-03T16:00:00Z,30.2513,-88.0778,2.184,5.5,1111122 
DISL,ioos:station:DISL:DISL:1,2013-10-03T16:30:00Z,30.2513,-88.0778,2.195,5.37,1111122 
DISL,ioos:station:DISL:DISL:1,2013-10-03T17:00:00Z,30.2513,-88.0778,2.182,5.41,1111122 
DISL,ioos:station:DISL:DISL:1,2013-10-03T17:30:00Z,30.2513,-88.0778,2.199,5.53,1111122 
DISL,ioos:station:DISL:DISL:1,2013-10-03T18:00:00Z,30.2513,-88.0778,2.195,5.56,1111122 
DISL,ioos:station:DISL:DISL:1,2013-10-03T18:30:00Z,30.2513,-88.0778,2.183,5.61,1111122 
DISL,ioos:station:DISL:DISL:1,2013-10-03T19:00:00Z,30.2513,-88.0778,2.151,5.55,1111122 
DISL,ioos:station:DISL:DISL:1,2013-10-03T19:30:00Z,30.2513,-88.0778,2.168,5.86,1111122 
DISL,ioos:station:DISL:DISL:1,2013-10-03T20:00:00Z,30.2513,-88.0778,2.091,5.99,1111122 
DISL,ioos:station:DISL:DISL:1,2013-10-03T20:30:00Z,30.2513,-88.0778,2.156,6.02,1111122 
DISL,ioos:station:DISL:DISL:1,2013-10-03T21:00:00Z,30.2513,-88.0778,2.145,5.89,1111122 
DISL,ioos:station:DISL:DISL:1,2013-10-03T21:30:00Z,30.2513,-88.0778,2.128,5.89,1111122 
DISL,ioos:station:DISL:DISL:1,2013-10-03T22:00:00Z,30.2513,-88.0778,2.164,6.04,1111122 
DISL,ioos:station:DISL:DISL:1,2013-10-03T22:30:00Z,30.2513,-88.0778,2.178,6.36,1111122 
DISL,ioos:station:DISL:DISL:1,2013-10-03T23:00:00Z,30.2513,-88.0778,2.155,6.51,1111122 
DISL,ioos:station:DISL:DISL:1,2013-10-03T23:30:00Z,30.2513,-88.0778,2.156,6.49,1111122 
DISL,ioos:station:DISL:DISL:1,2013-10-04T00:00:00Z,30.2513,-88.0778,2.153,6.31,1111122 
DISL,ioos:station:DISL:DISL:1,2013-10-04T00:30:00Z,30.2513,-88.0778,2.24,6.19,1111122 
DISL,ioos:station:DISL:DISL:1,2013-10-04T01:00:00Z,30.2513,-88.0778,2.198,6.15,1111122 
DISL,ioos:station:DISL:DISL:1,2013-10-04T01:30:00Z,30.2513,-88.0778,2.206,5.99,1111122 
DISL,ioos:station:DISL:DISL:1,2013-10-04T02:00:00Z,30.2513,-88.0778,2.226,6.24,1111122 
DISL,ioos:station:DISL:DISL:1,2013-10-04T02:30:00Z,30.2513,-88.0778,2.225,6.04,1111122 
DISL,ioos:station:DISL:DISL:1,2013-10-04T03:00:00Z,30.2513,-88.0778,2.251,5.94,1111122 
DISL,ioos:station:DISL:DISL:1,2013-10-04T03:30:00Z,30.2513,-88.0778,2.231,5.84,1111122 
DISL,ioos:station:DISL:DISL:1,2013-10-04T04:00:00Z,30.2513,-88.0778,2.229,5.99,1111122 
DISL,ioos:station:DISL:DISL:1,2013-10-04T04:30:00Z,30.2513,-88.0778,2.229,5.91,1111122 
DISL,ioos:station:DISL:DISL:1,2013-10-04T05:00:00Z,30.2513,-88.0778,2.224,5.99,1111122 
DISL,ioos:station:DISL:DISL:1,2013-10-04T05:30:00Z,30.2513,-88.0778,2.201,5.88,1111122 
DISL,ioos:station:DISL:DISL:1,2013-10-04T06:00:00Z,30.2513,-88.0778,2.197,5.98,1111122 
DISL,ioos:station:DISL:DISL:1,2013-10-04T06:30:00Z,30.2513,-88.0778,2.196,5.93,1111122 
DISL,ioos:station:DISL:DISL:1,2013-10-04T07:00:00Z,30.2513,-88.0778,2.197,6.06,1111122 
DISL,ioos:station:DISL:DISL:1,2013-10-04T07:30:00Z,30.2513,-88.0778,2.143,5.99,1111122 
DISL,ioos:station:DISL:DISL:1,2013-10-04T08:00:00Z,30.2513,-88.0778,2.143,5.92,1111122 
DISL,ioos:station:DISL:DISL:1,2013-10-04T08:30:00Z,30.2513,-88.0778,2.097,5.88,1111122 
DISL,ioos:station:DISL:DISL:1,2013-10-04T09:00:00Z,30.2513,-88.0778,2.098,5.83,1111122 
DISL,ioos:station:DISL:DISL:1,2013-10-04T09:30:00Z,30.2513,-88.0778,2.088,5.78,1111122 
DISL,ioos:station:DISL:DISL:1,2013-10-04T10:00:00Z,30.2513,-88.0778,2.081,5.96,1111122 
DISL,ioos:station:DISL:DISL:1,2013-10-04T10:30:00Z,30.2513,-88.0778,2.086,6.03,1111122 
DISL,ioos:station:DISL:DISL:1,2013-10-04T11:00:00Z,30.2513,-88.0778,2.061,6.0,1111122 
DISL,ioos:station:DISL:DISL:1,2013-10-04T11:30:00Z,30.2513,-88.0778,2.086,6.01,1111122 
DISL,ioos:station:DISL:DISL:1,2013-10-04T12:00:00Z,30.2513,-88.0778,2.091,5.84,1111122 
DISL,ioos:station:DISL:DISL:1,2013-10-04T12:30:00Z,30.2513,-88.0778,2.075,5.94,1111122 
DISL,ioos:station:DISL:DISL:1,2013-10-04T13:00:00Z,30.2513,-88.0778,2.081,5.91,1111122 
DISL,ioos:station:DISL:DISL:1,2013-10-04T13:30:00Z,30.2513,-88.0778,2.09,5.73,1111122 
DISL,ioos:station:DISL:DISL:1,2013-10-04T14:00:00Z,30.2513,-88.0778,2.114,5.79,1111122 
DISL,ioos:station:DISL:DISL:1,2013-10-04T14:30:00Z,30.2513,-88.0778,2.121,5.72,1111122 
DISL,ioos:station:DISL:DISL:1,2013-10-04T15:00:00Z,30.2513,-88.0778,2.139,5.88,1111122 
DISL,ioos:station:DISL:DISL:1,2013-10-04T15:30:00Z,30.2513,-88.0778,2.124,5.9,1111122 
DISL,ioos:station:DISL:DISL:1,2013-10-04T16:00:00Z,30.2513,-88.0778,2.127,5.92,1111122 
DISL,ioos:station:DISL:DISL:1,2013-10-04T16:30:00Z,30.2513,-88.0778,2.17,5.77,1111122 
DISL,ioos:station:DISL:DISL:1,2013-10-04T17:00:00Z,30.2513,-88.0778,2.175,5.76,1111122 
DISL,ioos:station:DISL:DISL:1,2013-10-04T17:30:00Z,30.2513,-88.0778,2.175,5.79,1111122 
DISL,ioos:station:DISL:DISL:1,2013-10-04T18:00:00Z,30.2513,-88.0778,2.177,5.94,1111122 
DISL,ioos:station:DISL:DISL:1,2013-10-04T18:30:00Z,30.2513,-88.0778,2.158,5.93,1111122 
DISL,ioos:station:DISL:DISL:1,2013-10-04T19:00:00Z,30.2513,-88.0778,2.17,5.89,1111122 
DISL,ioos:station:DISL:DISL:1,2013-10-04T19:30:00Z,30.2513,-88.0778,2.133,6.16,1111122 
DISL,ioos:station:DISL:DISL:1,2013-10-04T20:00:00Z,30.2513,-88.0778,2.159,6.22,1111122 
DISL,ioos:station:DISL:DISL:1,2013-10-04T20:30:00Z,30.2513,-88.0778,2.146,6.18,1111122 
DISL,ioos:station:DISL:DISL:1,2013-10-04T21:00:00Z,30.2513,-88.0778,2.141,5.93,1111122 
DISL,ioos:station:DISL:DISL:1,2013-10-04T21:30:00Z,30.2513,-88.0778,2.167,6.29,1111122 
DISL,ioos:station:DISL:DISL:1,2013-10-04T22:00:00Z,30.2513,-88.0778,2.187,6.29,1111122 
DISL,ioos:station:DISL:DISL:1,2013-10-04T22:30:00Z,30.2513,-88.0778,2.177,6.59,1111122 
DISL,ioos:station:DISL:DISL:1,2013-10-04T23:00:00Z,30.2513,-88.0778,2.182,6.72,1111122 
DISL,ioos:station:DISL:DISL:1,2013-10-04T23:30:00Z,30.2513,-88.0778,2.18,6.7,1111122 
DISL,ioos:station:DISL:DISL:1,2013-10-05T00:00:00Z,30.2513,-88.0778,2.185,6.79,1111122 
DISL,ioos:station:DISL:DISL:1,2013-10-05T00:30:00Z,30.2513,-88.0778,2.196,6.63,1111122 
DISL,ioos:station:DISL:DISL:1,2013-10-05T01:00:00Z,30.2513,-88.0778,2.184,6.46,1111122 
DISL,ioos:station:DISL:DISL:1,2013-10-05T01:30:00Z,30.2513,-88.0778,2.204,6.68,1111122 
DISL,ioos:station:DISL:DISL:1,2013-10-05T02:00:00Z,30.2513,-88.0778,2.196,6.58,1111122 
DISL,ioos:station:DISL:DISL:1,2013-10-05T02:30:00Z,30.2513,-88.0778,2.195,6.5,1111122 
DISL,ioos:station:DISL:DISL:1,2013-10-05T03:00:00Z,30.2513,-88.0778,2.215,6.06,1111122 
DISL,ioos:station:DISL:DISL:1,2013-10-05T03:30:00Z,30.2513,-88.0778,2.201,6.07,1111122 
DISL,ioos:station:DISL:DISL:1,2013-10-05T04:00:00Z,30.2513,-88.0778,2.197,5.64,1111122 
DISL,ioos:station:DISL:DISL:1,2013-10-05T04:30:00Z,30.2513,-88.0778,2.192,5.63,1111122 
DISL,ioos:station:DISL:DISL:1,2013-10-05T05:00:00Z,30.2513,-88.0778,2.181,5.87,1111122 
DISL,ioos:station:DISL:DISL:1,2013-10-05T05:30:00Z,30.2513,-88.0778,2.192,5.82,1111122 
DISL,ioos:station:DISL:DISL:1,2013-10-05T06:00:00Z,30.2513,-88.0778,2.17,5.73,1111122 
DISL,ioos:station:DISL:DISL:1,2013-10-05T06:30:00Z,30.2513,-88.0778,2.163,5.69,1111122 
DISL,ioos:station:DISL:DISL:1,2013-10-05T07:00:00Z,30.2513,-88.0778,2.163,6.0,1111122 
DISL,ioos:station:DISL:DISL:1,2013-10-05T07:30:00Z,30.2513,-88.0778,2.151,6.2,1111122 
DISL,ioos:station:DISL:DISL:1,2013-10-05T08:00:00Z,30.2513,-88.0778,2.126,6.19,1111122 
DISL,ioos:station:DISL:DISL:1,2013-10-05T08:30:00Z,30.2513,-88.0778,2.095,6.27,1111122 
DISL,ioos:station:DISL:DISL:1,2013-10-05T09:00:00Z,30.2513,-88.0778,2.087,6.35,1111122 
DISL,ioos:station:DISL:DISL:1,2013-10-05T09:30:00Z,30.2513,-88.0778,2.078,6.29,1111122 
DISL,ioos:station:DISL:DISL:1,2013-10-05T10:00:00Z,30.2513,-88.0778,2.072,6.32,1111122 
DISL,ioos:station:DISL:DISL:1,2013-10-05T10:30:00Z,30.2513,-88.0778,2.046,6.28,1111122 
DISL,ioos:station:DISL:DISL:1,2013-10-05T11:00:00Z,30.2513,-88.0778,2.058,6.23,1111122 
DISL,ioos:station:DISL:DISL:1,2013-10-05T11:30:00Z,30.2513,-88.0778,2.055,6.25,1111122 
DISL,ioos:station:DISL:DISL:1,2013-10-05T12:00:00Z,30.2513,-88.0778,2.029,6.26,1111122 
DISL,ioos:station:DISL:DISL:1,2013-10-05T12:30:00Z,30.2513,-88.0778,2.037,6.25,1111122 
DISL,ioos:station:DISL:DISL:1,2013-10-05T13:00:00Z,30.2513,-88.0778,2.04,6.26,1111122 
DISL,ioos:station:DISL:DISL:1,2013-10-05T13:30:00Z,30.2513,-88.0778,2.035,6.12,1111122 
DISL,ioos:station:DISL:DISL:1,2013-10-05T14:00:00Z,30.2513,-88.0778,2.025,5.79,1111122 
DISL,ioos:station:DISL:DISL:1,2013-10-05T14:30:00Z,30.2513,-88.0778,2.025,5.81,1111122 
DISL,ioos:station:DISL:DISL:1,2013-10-05T15:00:00Z,30.2513,-88.0778,2.018,6.17,1111122 
DISL,ioos:station:DISL:DISL:1,2013-10-05T15:30:00Z,30.2513,-88.0778,2.028,6.14,1111122 
DISL,ioos:station:DISL:DISL:1,2013-10-05T16:00:00Z,30.2513,-88.0778,2.024,6.01,1111122 
DISL,ioos:station:DISL:DISL:1,2013-10-05T16:30:00Z,30.2513,-88.0778,2.016,5.75,1111122 
DISL,ioos:station:DISL:DISL:1,2013-10-05T17:00:00Z,30.2513,-88.0778,2.032,5.48,1111122 
DISL,ioos:station:DISL:DISL:1,2013-10-05T17:30:00Z,30.2513,-88.0778,2.038,5.67,1111122 
DISL,ioos:station:DISL:DISL:1,2013-10-05T18:00:00Z,30.2513,-88.0778,2.045,5.83,1111122 
DISL,ioos:station:DISL:DISL:1,2013-10-05T18:30:00Z,30.2513,-88.0778,2.039,6.09,1111122 
DISL,ioos:station:DISL:DISL:1,2013-10-05T19:00:00Z,30.2513,-88.0778,2.058,6.1,1111122 
DISL,ioos:station:DISL:DISL:1,2013-10-05T19:30:00Z,30.2513,-88.0778,2.039,6.18,1111122 
DISL,ioos:station:DISL:DISL:1,2013-10-05T20:00:00Z,30.2513,-88.0778,2.048,5.95,1111122 
DISL,ioos:station:DISL:DISL:1,2013-10-05T20:30:00Z,30.2513,-88.0778,2.035,6.09,1111122 
DISL,ioos:station:DISL:DISL:1,2013-10-05T21:00:00Z,30.2513,-88.0778,2.058,6.51,1111122 
DISL,ioos:station:DISL:DISL:1,2013-10-05T21:30:00Z,30.2513,-88.0778,2.086,6.52,1111122 
DISL,ioos:station:DISL:DISL:1,2013-10-05T22:00:00Z,30.2513,-88.0778,2.084,6.83,1111122 
DISL,ioos:station:DISL:DISL:1,2013-10-05T22:30:00Z,30.2513,-88.0778,2.094,6.71,1111122 
DISL,ioos:station:DISL:DISL:1,2013-10-05T23:00:00Z,30.2513,-88.0778,2.094,6.85,1111122 
DISL,ioos:station:DISL:DISL:1,2013-10-05T23:30:00Z,30.2513,-88.0778,2.103,6.77,1111122 
DISL,ioos:station:DISL:DISL:1,2013-10-06T00:00:00Z,30.2513,-88.0778,2.126,6.7,1111122 
DISL,ioos:station:DISL:DISL:1,2013-10-06T00:30:00Z,30.2513,-88.0778,2.156,6.62,1111122 
DISL,ioos:station:DISL:DISL:1,2013-10-06T01:00:00Z,30.2513,-88.0778,2.195,6.54,1111122 
DISL,ioos:station:DISL:DISL:1,2013-10-06T01:30:00Z,30.2513,-88.0778,2.202,6.13,1111122 
DISL,ioos:station:DISL:DISL:1,2013-10-06T02:00:00Z,30.2513,-88.0778,2.209,6.25,1111122 
DISL,ioos:station:DISL:DISL:1,2013-10-06T02:30:00Z,30.2513,-88.0778,2.232,6.13,1111122 
DISL,ioos:station:DISL:DISL:1,2013-10-06T03:00:00Z,30.2513,-88.0778,2.261,6.37,1111122 
DISL,ioos:station:DISL:DISL:1,2013-10-06T03:30:00Z,30.2513,-88.0778,2.262,6.45,1111122 
DISL,ioos:station:DISL:DISL:1,2013-10-06T04:00:00Z,30.2513,-88.0778,2.279,6.49,1111122 
DISL,ioos:station:DISL:DISL:1,2013-10-06T04:30:00Z,30.2513,-88.0778,2.283,6.51,1111122 
DISL,ioos:station:DISL:DISL:1,2013-10-06T05:00:00Z,30.2513,-88.0778,2.276,6.41,1111122 
DISL,ioos:station:DISL:DISL:1,2013-10-06T05:30:00Z,30.2513,-88.0778,2.273,6.38,1111122 
DISL,ioos:station:DISL:DISL:1,2013-10-06T06:00:00Z,30.2513,-88.0778,2.271,6.36,1111122 
DISL,ioos:station:DISL:DISL:1,2013-10-06T06:30:00Z,30.2513,-88.0778,2.239,6.34,1111122 
DISL,ioos:station:DISL:DISL:1,2013-10-06T07:00:00Z,30.2513,-88.0778,2.23,6.3,1111122 
DISL,ioos:station:DISL:DISL:1,2013-10-06T07:30:00Z,30.2513,-88.0778,2.193,6.21,1111122 
DISL,ioos:station:DISL:DISL:1,2013-10-06T08:00:00Z,30.2513,-88.0778,2.177,6.31,1111122 
DISL,ioos:station:DISL:DISL:1,2013-10-06T08:30:00Z,30.2513,-88.0778,2.141,6.43,1111122 
DISL,ioos:station:DISL:DISL:1,2013-10-06T09:00:00Z,30.2513,-88.0778,2.119,6.39,1111122 
DISL,ioos:station:DISL:DISL:1,2013-10-06T09:30:00Z,30.2513,-88.0778,2.109,6.34,1111122 
DISL,ioos:station:DISL:DISL:1,2013-10-06T10:00:00Z,30.2513,-88.0778,2.08,6.05,1111122 
DISL,ioos:station:DISL:DISL:1,2013-10-06T10:30:00Z,30.2513,-88.0778,2.084,5.99,1111122 
DISL,ioos:station:DISL:DISL:1,2013-10-06T11:00:00Z,30.2513,-88.0778,2.031,6.02,1111122 
DISL,ioos:station:DISL:DISL:1,2013-10-06T11:30:00Z,30.2513,-88.0778,2.031,6.0,1111122 
DISL,ioos:station:DISL:DISL:1,2013-10-06T12:00:00Z,30.2513,-88.0778,2.042,6.1,1111122 
DISL,ioos:station:DISL:DISL:1,2013-10-06T12:30:00Z,30.2513,-88.0778,2.015,6.18,1111122 
DISL,ioos:station:DISL:DISL:1,2013-10-06T13:00:00Z,30.2513,-88.0778,2.041,6.41,1111122 
DISL,ioos:station:DISL:DISL:1,2013-10-06T13:30:00Z,30.2513,-88.0778,2.019,6.55,1111122 
DISL,ioos:station:DISL:DISL:1,2013-10-06T14:00:00Z,30.2513,-88.0778,2.019,6.46,1111122 
DISL,ioos:station:DISL:DISL:1,2013-10-06T14:30:00Z,30.2513,-88.0778,2.039,5.87,1111122 
DISL,ioos:station:DISL:DISL:1,2013-10-06T15:00:00Z,30.2513,-88.0778,2.05,6.03,1111122 
DISL,ioos:station:DISL:DISL:1,2013-10-06T15:30:00Z,30.2513,-88.0778,2.071,6.19,1111122 